TimeMST,TemperatureF,Dew PointF,Humidity,Sea Level PressureIn,VisibilityMPH,Wind Direction,Wind SpeedMPH,Gust SpeedMPH,PrecipitationIn,Events,Conditions,WindDirDegrees,DateUTC
12:53 AM,21.0,10.0,63,30.51,10.0,WNW,4.6,-,N/A,,Clear,290,2012-11-23 07:53:00
1:53 AM,21.0,10.9,65,30.51,10.0,West,5.8,-,N/A,,Clear,270,2012-11-23 08:53:00
2:53 AM,21.0,9.0,60,30.51,10.0,SW,5.8,-,N/A,,Clear,230,2012-11-23 09:53:00
3:53 AM,19.0,9.0,65,30.51,10.0,West,6.9,-,N/A,,Clear,260,2012-11-23 10:53:00
4:53 AM,19.9,9.0,62,30.52,10.0,NNW,6.9,-,N/A,,Clear,340,2012-11-23 11:53:00
5:53 AM,21.0,8.1,57,30.53,10.0,East,4.6,-,N/A,,Clear,100,2012-11-23 12:53:00
6:53 AM,18.0,9.0,68,30.55,10.0,Calm,Calm,-,N/A,,Clear,0,2012-11-23 13:53:00
7:53 AM,19.9,10.9,68,30.54,10.0,East,3.5,-,N/A,,Clear,100,2012-11-23 14:53:00
8:53 AM,25.0,10.9,55,30.55,10.0,Calm,Calm,-,N/A,,Clear,0,2012-11-23 15:53:00
9:53 AM,28.9,12.0,49,30.53,10.0,Calm,Calm,-,N/A,,Clear,0,2012-11-23 16:53:00
10:53 AM,33.1,12.9,43,30.52,10.0,Calm,Calm,-,N/A,,Clear,0,2012-11-23 17:53:00
11:53 AM,32.0,16.0,52,30.50,10.0,ENE,4.6,-,N/A,,Clear,70,2012-11-23 18:53:00
12:53 PM,34.0,16.0,48,30.43,10.0,NNE,3.5,-,N/A,,Clear,30,2012-11-23 19:53:00
1:53 PM,33.1,16.0,50,30.42,10.0,ENE,5.8,-,N/A,,Clear,60,2012-11-23 20:53:00
2:53 PM,36.0,15.1,43,30.38,10.0,Calm,Calm,-,N/A,,Clear,0,2012-11-23 21:53:00
3:53 PM,37.0,16.0,42,30.37,10.0,Calm,Calm,-,N/A,,Clear,0,2012-11-23 22:53:00
4:53 PM,30.9,14.0,50,30.38,10.0,East,4.6,-,N/A,,Clear,90,2012-11-23 23:53:00
5:53 PM,30.0,12.0,47,30.36,10.0,NE,3.5,-,N/A,,Clear,50,2012-11-24 00:53:00
6:53 PM,27.0,12.9,56,30.37,10.0,Calm,Calm,-,N/A,,Clear,0,2012-11-24 01:53:00
7:53 PM,27.0,12.0,53,30.35,10.0,Calm,Calm,-,N/A,,Clear,0,2012-11-24 02:53:00
8:53 PM,28.0,12.0,51,30.32,10.0,Calm,Calm,-,N/A,,Clear,0,2012-11-24 03:53:00
9:53 PM,27.0,12.9,56,30.29,10.0,SW,4.6,-,N/A,,Clear,230,2012-11-24 04:53:00
10:53 PM,26.6,14.0,59,30.18,10.0,WSW,8.1,-,N/A,,Clear,240,2012-11-24 05:53:00
11:53 PM,27.0,14.0,58,30.24,10.0,SW,6.9,-,N/A,,Clear,230,2012-11-24 06:53:00